Time,TemperatureF,DewpointF,PressureIn,WindDirection,WindDirectionDegrees,WindSpeedMPH,WindSpeedGustMPH,Humidity,HourlyPrecipIn,Conditions,Clouds,dailyrainin,SoftwareType,DateUTC
2013-01-15 00:00:00,54.2,53.1,29.83,North,350,0.0,5.0,96,0.00,,---,0.00,VWS V14.00,2013-01-15 05:00:00,
2013-01-15 00:03:00,54.1,53.0,29.83,North,350,0.0,0.0,96,0.00,,---,0.00,VWS V14.00,2013-01-15 05:03:00,
2013-01-15 00:06:00,54.1,53.0,29.84,SE,132,1.0,1.0,96,0.00,,---,0.00,VWS V14.00,2013-01-15 05:06:00,
2013-01-15 00:09:00,54.1,53.0,29.83,SE,131,0.0,1.0,96,0.00,,---,0.00,VWS V14.00,2013-01-15 05:09:00,
2013-01-15 00:12:00,54.1,53.0,29.83,SE,131,0.0,1.0,96,0.00,,---,0.00,VWS V14.00,2013-01-15 05:12:00,
2013-01-15 00:15:00,54.1,53.0,29.83,NE,38,0.0,1.0,96,0.00,,---,0.00,VWS V14.00,2013-01-15 05:15:00,
2013-01-15 00:18:00,54.0,52.9,29.83,NE,39,0.0,1.0,96,0.00,,---,0.00,VWS V14.00,2013-01-15 05:18:00,
2013-01-15 00:21:00,54.0,52.9,29.83,NE,39,0.0,1.0,96,0.00,,---,0.00,VWS V14.00,2013-01-15 05:21:00,
2013-01-15 00:24:00,54.0,53.2,29.83,NE,38,0.0,1.0,97,0.00,,---,0.00,VWS V14.00,2013-01-15 05:24:00,
2013-01-15 00:27:00,54.0,53.2,29.83,NE,41,0.0,1.0,97,0.00,,---,0.00,VWS V14.00,2013-01-15 05:27:00,
2013-01-15 00:30:00,54.0,53.2,29.83,ENE,63,0.0,1.0,97,0.00,,---,0.00,VWS V14.00,2013-01-15 05:30:00,
2013-01-15 00:33:00,54.0,53.2,29.83,South,172,0.0,0.0,97,0.00,,---,0.00,VWS V14.00,2013-01-15 05:33:00,
2013-01-15 00:36:00,53.9,53.1,29.83,South,175,0.0,0.0,97,0.00,,---,0.00,VWS V14.00,2013-01-15 05:36:00,
2013-01-15 00:39:00,53.9,53.1,29.83,South,174,0.0,0.0,97,0.00,,---,0.00,VWS V14.00,2013-01-15 05:39:00,
2013-01-15 00:42:00,53.9,53.1,29.83,SSW,213,0.0,0.0,97,0.00,,---,0.00,VWS V14.00,2013-01-15 05:42:00,
2013-01-15 00:45:00,53.9,53.1,29.83,SSE,153,0.0,0.0,97,0.00,,---,0.00,VWS V14.00,2013-01-15 05:45:00,
2013-01-15 00:48:00,53.9,53.1,29.83,SSE,150,0.0,0.0,97,0.00,,---,0.00,VWS V14.00,2013-01-15 05:48:00,
2013-01-15 00:51:00,53.9,53.1,29.83,SSE,148,0.0,0.0,97,0.00,,---,0.00,VWS V14.00,2013-01-15 05:51:00,
2013-01-15 00:54:00,53.8,53.0,29.83,SE,139,0.0,0.0,97,0.00,,---,0.00,VWS V14.00,2013-01-15 05:54:00,
2013-01-15 00:57:00,53.8,53.0,29.83,SE,139,0.0,0.0,97,0.00,,---,0.00,VWS V14.00,2013-01-15 05:57:00,
2013-01-15 01:00:00,53.9,53.1,29.83,SE,139,0.0,0.0,97,0.00,,---,0.00,VWS V14.00,2013-01-15 06:00:00,
2013-01-15 01:03:00,53.8,53.0,29.83,SE,139,0.0,0.0,97,0.00,,---,0.00,VWS V14.00,2013-01-15 06:03:00,
2013-01-15 01:06:00,53.8,53.0,29.83,SE,139,0.0,0.0,97,0.00,,---,0.00,VWS V14.00,2013-01-15 06:06:00,
2013-01-15 01:09:00,53.8,53.0,29.83,SE,140,0.0,0.0,97,0.00,,---,0.00,VWS V14.00,2013-01-15 06:09:00,
2013-01-15 01:12:00,53.8,53.0,29.83,SE,139,0.0,0.0,97,0.00,,---,0.00,VWS V14.00,2013-01-15 06:12:00,
2013-01-15 01:15:00,53.8,53.2,29.83,SE,139,0.0,0.0,98,0.00,,---,0.00,VWS V14.00,2013-01-15 06:15:00,
2013-01-15 01:18:00,53.9,53.3,29.83,SE,139,0.0,0.0,98,0.00,,---,0.00,VWS V14.00,2013-01-15 06:18:00,
2013-01-15 01:21:00,53.9,53.3,29.83,SE,140,0.0,0.0,98,0.00,,---,0.00,VWS V14.00,2013-01-15 06:21:00,
2013-01-15 01:24:00,53.8,53.2,29.83,ENE,70,0.0,0.0,98,0.00,,---,0.00,VWS V14.00,2013-01-15 06:24:00,
2013-01-15 01:27:00,53.9,53.3,29.82,ENE,63,0.0,0.0,98,0.00,,---,0.00,VWS V14.00,2013-01-15 06:27:00,
2013-01-15 01:30:00,53.9,53.3,29.82,ENE,63,0.0,0.0,98,0.00,,---,0.00,VWS V14.00,2013-01-15 06:30:00,
2013-01-15 01:33:00,53.9,53.3,29.83,ENE,62,0.0,0.0,98,0.00,,---,0.00,VWS V14.00,2013-01-15 06:33:00,
2013-01-15 01:36:00,53.9,53.3,29.83,ENE,63,0.0,0.0,98,0.00,,---,0.00,VWS V14.00,2013-01-15 06:36:00,
2013-01-15 01:39:00,53.9,53.3,29.83,South,177,0.0,0.0,98,0.00,,---,0.00,VWS V14.00,2013-01-15 06:39:00,
2013-01-15 01:42:00,53.9,53.3,29.83,South,177,0.0,0.0,98,0.00,,---,0.00,VWS V14.00,2013-01-15 06:42:00,
2013-01-15 01:45:00,53.9,53.3,29.82,South,177,0.0,0.0,98,0.00,,---,0.00,VWS V14.00,2013-01-15 06:45:00,
2013-01-15 01:48:00,53.9,53.3,29.82,South,177,0.0,0.0,98,0.00,,---,0.00,VWS V14.00,2013-01-15 06:48:00,
2013-01-15 01:51:00,53.8,53.2,29.82,South,178,0.0,0.0,98,0.01,,---,0.01,VWS V14.00,2013-01-15 06:51:00,
2013-01-15 01:54:00,53.8,53.2,29.82,South,177,0.0,0.0,98,0.01,,---,0.01,VWS V14.00,2013-01-15 06:54:00,
2013-01-15 01:57:00,53.8,53.2,29.82,South,177,0.0,0.0,98,0.01,,---,0.01,VWS V14.00,2013-01-15 06:57:00,
2013-01-15 02:00:00,53.8,53.2,29.82,South,177,0.0,0.0,98,0.01,,---,0.01,VWS V14.00,2013-01-15 07:00:00,
2013-01-15 02:03:00,53.8,53.2,29.81,South,177,0.0,0.0,98,0.01,,---,0.01,VWS V14.00,2013-01-15 07:03:00,
2013-01-15 02:06:00,53.8,53.2,29.81,South,177,0.0,0.0,98,0.01,,---,0.01,VWS V14.00,2013-01-15 07:06:00,
2013-01-15 02:09:00,53.8,53.2,29.81,South,177,0.0,0.0,98,0.01,,---,0.01,VWS V14.00,2013-01-15 07:09:00,
2013-01-15 02:12:00,53.8,53.2,29.81,South,177,0.0,0.0,98,0.02,,---,0.02,VWS V14.00,2013-01-15 07:12:00,
2013-01-15 02:15:00,53.8,53.2,29.81,South,177,0.0,0.0,98,0.02,,---,0.02,VWS V14.00,2013-01-15 07:15:00,
2013-01-15 02:18:00,53.8,53.2,29.81,South,177,0.0,0.0,98,0.02,,---,0.02,VWS V14.00,2013-01-15 07:18:00,
2013-01-15 02:21:00,53.9,53.3,29.81,South,177,0.0,0.0,98,0.02,,---,0.02,VWS V14.00,2013-01-15 07:21:00,
2013-01-15 02:24:00,53.9,53.3,29.81,South,177,0.0,0.0,98,0.02,,---,0.02,VWS V14.00,2013-01-15 07:24:00,
2013-01-15 02:27:00,53.9,53.3,29.81,SW,236,0.0,0.0,98,0.02,,---,0.02,VWS V14.00,2013-01-15 07:27:00,
2013-01-15 02:30:00,53.8,53.2,29.81,SW,236,0.0,0.0,98,0.02,,---,0.02,VWS V14.00,2013-01-15 07:30:00,
2013-01-15 02:33:00,53.9,53.3,29.81,South,187,0.0,0.0,98,0.02,,---,0.02,VWS V14.00,2013-01-15 07:33:00,
2013-01-15 02:36:00,53.9,53.3,29.81,SW,225,0.0,0.0,98,0.02,,---,0.02,VWS V14.00,2013-01-15 07:36:00,
2013-01-15 02:39:00,54.0,53.5,29.81,SSW,211,0.0,0.0,98,0.02,,---,0.02,VWS V14.00,2013-01-15 07:39:00,
2013-01-15 02:43:00,53.6,53.0,29.81,West,267,0.0,0.0,98,0.02,,---,0.02,VWS V14.00,2013-01-15 07:43:00,
2013-01-15 02:46:00,53.1,53.1,29.81,West,267,0.0,0.0,100,0.02,,---,0.02,VWS V14.00,2013-01-15 07:46:00,
2013-01-15 02:49:00,53.1,53.1,29.81,West,267,0.0,0.0,100,0.02,,---,0.02,VWS V14.00,2013-01-15 07:49:00,
2013-01-15 02:52:00,53.1,53.1,29.81,West,267,0.0,0.0,100,0.02,,---,0.02,VWS V14.00,2013-01-15 07:52:00,
2013-01-15 02:55:00,53.1,53.1,29.81,West,267,0.0,0.0,100,0.02,,---,0.02,VWS V14.00,2013-01-15 07:55:00,
2013-01-15 02:58:00,53.1,53.1,29.81,West,267,0.0,0.0,100,0.02,,---,0.02,VWS V14.00,2013-01-15 07:58:00,
2013-01-15 03:00:00,53.1,53.1,29.81,West,267,0.0,0.0,100,0.02,,---,0.02,VWS V14.00,2013-01-15 08:00:00,
2013-01-15 03:01:00,53.1,53.1,29.81,West,267,0.0,0.0,100,0.01,,---,0.02,VWS V14.00,2013-01-15 08:01:00,
2013-01-15 03:04:00,53.1,53.1,29.81,West,267,0.0,0.0,100,0.01,,---,0.02,VWS V14.00,2013-01-15 08:04:00,
2013-01-15 03:07:00,53.1,53.1,29.81,West,267,0.0,0.0,100,0.01,,---,0.02,VWS V14.00,2013-01-15 08:07:00,
2013-01-15 03:10:00,53.1,53.1,29.81,West,267,0.0,0.0,100,0.01,,---,0.02,VWS V14.00,2013-01-15 08:10:00,
2013-01-15 03:13:00,53.1,53.1,29.80,West,267,0.0,0.0,100,0.01,,---,0.02,VWS V14.00,2013-01-15 08:13:00,
2013-01-15 03:16:00,53.1,53.1,29.80,West,267,0.0,0.0,100,0.01,,---,0.02,VWS V14.00,2013-01-15 08:16:00,
2013-01-15 03:19:00,53.1,53.1,29.80,West,267,0.0,0.0,100,0.01,,---,0.02,VWS V14.00,2013-01-15 08:19:00,
2013-01-15 03:22:00,53.1,53.1,29.79,West,267,0.0,0.0,100,0.01,,---,0.02,VWS V14.00,2013-01-15 08:22:00,
2013-01-15 03:25:00,53.1,53.1,29.79,West,267,0.0,0.0,100,0.01,,---,0.02,VWS V14.00,2013-01-15 08:25:00,
2013-01-15 03:28:00,53.1,53.1,29.79,West,267,0.0,0.0,100,0.01,,---,0.02,VWS V14.00,2013-01-15 08:28:00,
2013-01-15 03:30:00,53.1,53.1,29.79,West,267,0.0,0.0,100,0.01,,---,0.02,VWS V14.00,2013-01-15 08:30:00,
2013-01-15 03:31:00,53.1,53.1,29.79,West,267,0.0,0.0,100,0.00,,---,0.02,VWS V14.00,2013-01-15 08:31:00,
2013-01-15 03:34:00,53.1,53.1,29.79,West,267,0.0,0.0,100,0.00,,---,0.02,VWS V14.00,2013-01-15 08:34:00,
2013-01-15 03:37:00,53.1,53.1,29.79,West,267,0.0,0.0,100,0.00,,---,0.02,VWS V14.00,2013-01-15 08:37:00,
2013-01-15 03:40:00,53.1,53.1,29.79,West,267,0.0,0.0,100,0.00,,---,0.02,VWS V14.00,2013-01-15 08:40:00,
2013-01-15 03:43:00,53.1,53.1,29.79,West,267,0.0,0.0,100,0.00,,---,0.02,VWS V14.00,2013-01-15 08:43:00,
2013-01-15 03:46:00,53.1,53.1,29.79,West,267,0.0,0.0,100,0.00,,---,0.02,VWS V14.00,2013-01-15 08:46:00,
2013-01-15 03:49:00,53.1,53.1,29.79,West,267,0.0,0.0,100,0.00,,---,0.02,VWS V14.00,2013-01-15 08:49:00,
2013-01-15 03:52:00,53.1,53.1,29.79,West,267,0.0,0.0,100,0.00,,---,0.02,VWS V14.00,2013-01-15 08:52:00,
2013-01-15 03:55:00,53.1,53.1,29.79,West,267,0.0,0.0,100,0.00,,---,0.02,VWS V14.00,2013-01-15 08:55:00,
2013-01-15 03:58:00,53.1,53.1,29.79,West,267,0.0,0.0,100,0.00,,---,0.02,VWS V14.00,2013-01-15 08:58:00,
2013-01-15 04:00:00,53.1,53.1,29.79,West,267,0.0,0.0,100,0.00,,---,0.02,VWS V14.00,2013-01-15 09:00:00,
2013-01-15 04:01:00,53.1,53.1,29.79,West,267,0.0,0.0,100,0.00,,---,0.02,VWS V14.00,2013-01-15 09:01:00,
2013-01-15 04:04:00,53.1,53.1,29.79,West,267,0.0,0.0,100,0.00,,---,0.02,VWS V14.00,2013-01-15 09:04:00,
2013-01-15 04:07:00,53.1,53.1,29.78,West,267,0.0,0.0,100,0.00,,---,0.02,VWS V14.00,2013-01-15 09:07:00,
2013-01-15 04:10:00,53.1,53.1,29.79,West,267,0.0,0.0,100,0.00,,---,0.02,VWS V14.00,2013-01-15 09:10:00,
2013-01-15 04:13:00,53.1,53.1,29.78,West,267,0.0,0.0,100,0.00,,---,0.02,VWS V14.00,2013-01-15 09:13:00,
2013-01-15 04:16:00,53.1,53.1,29.78,West,267,0.0,0.0,100,0.00,,---,0.02,VWS V14.00,2013-01-15 09:16:00,
2013-01-15 04:19:00,53.1,53.1,29.78,West,267,0.0,0.0,100,0.00,,---,0.02,VWS V14.00,2013-01-15 09:19:00,
2013-01-15 04:22:00,53.1,53.1,29.78,West,267,0.0,0.0,100,0.00,,---,0.02,VWS V14.00,2013-01-15 09:22:00,
2013-01-15 04:25:00,53.1,53.1,29.78,West,267,0.0,0.0,100,0.00,,---,0.02,VWS V14.00,2013-01-15 09:25:00,
2013-01-15 04:28:00,53.1,53.1,29.78,West,267,0.0,0.0,100,0.00,,---,0.02,VWS V14.00,2013-01-15 09:28:00,
2013-01-15 04:30:00,53.1,53.1,29.79,West,267,0.0,0.0,100,0.00,,---,0.02,VWS V14.00,2013-01-15 09:30:00,
2013-01-15 04:31:00,53.1,53.1,29.79,West,267,0.0,0.0,100,0.00,,---,0.02,VWS V14.00,2013-01-15 09:31:00,
2013-01-15 04:34:00,53.1,53.1,29.79,West,267,0.0,0.0,100,0.00,,---,0.02,VWS V14.00,2013-01-15 09:34:00,
2013-01-15 04:37:00,53.1,53.1,29.79,West,267,0.0,0.0,100,0.00,,---,0.02,VWS V14.00,2013-01-15 09:37:00,
2013-01-15 04:40:00,53.1,53.1,29.79,West,267,0.0,0.0,100,0.00,,---,0.02,VWS V14.00,2013-01-15 09:40:00,
2013-01-15 04:43:00,53.1,53.1,29.79,West,267,0.0,0.0,100,0.00,,---,0.02,VWS V14.00,2013-01-15 09:43:00,
2013-01-15 04:46:00,53.1,53.1,29.79,West,267,0.0,0.0,100,0.00,,---,0.02,VWS V14.00,2013-01-15 09:46:00,
2013-01-15 04:49:00,53.1,53.1,29.79,West,267,0.0,0.0,100,0.00,,---,0.02,VWS V14.00,2013-01-15 09:49:00,
2013-01-15 04:52:00,53.1,53.1,29.79,West,267,0.0,0.0,100,0.00,,---,0.02,VWS V14.00,2013-01-15 09:52:00,
2013-01-15 04:55:00,53.1,53.1,29.80,West,267,0.0,0.0,100,0.00,,---,0.02,VWS V14.00,2013-01-15 09:55:00,
2013-01-15 04:58:00,53.1,53.1,29.80,West,267,0.0,0.0,100,0.00,,---,0.02,VWS V14.00,2013-01-15 09:58:00,
2013-01-15 05:00:00,53.1,53.1,29.80,West,267,0.0,0.0,100,0.00,,---,0.02,VWS V14.00,2013-01-15 10:00:00,
2013-01-15 05:01:00,53.1,53.1,29.80,West,267,0.0,0.0,100,0.00,,---,0.02,VWS V14.00,2013-01-15 10:01:00,
2013-01-15 05:04:00,53.1,53.1,29.80,West,267,0.0,0.0,100,0.00,,---,0.02,VWS V14.00,2013-01-15 10:04:00,
2013-01-15 05:07:00,53.1,53.1,29.80,West,267,0.0,0.0,100,0.00,,---,0.02,VWS V14.00,2013-01-15 10:07:00,
2013-01-15 05:10:00,53.1,53.1,29.81,West,267,0.0,0.0,100,0.00,,---,0.02,VWS V14.00,2013-01-15 10:10:00,
2013-01-15 05:13:00,53.1,53.1,29.81,West,267,0.0,0.0,100,0.00,,---,0.02,VWS V14.00,2013-01-15 10:13:00,
2013-01-15 05:16:00,53.1,53.1,29.81,West,267,0.0,0.0,100,0.00,,---,0.02,VWS V14.00,2013-01-15 10:16:00,
2013-01-15 05:19:00,53.1,53.1,29.81,West,267,0.0,0.0,100,0.00,,---,0.02,VWS V14.00,2013-01-15 10:19:00,
2013-01-15 05:22:00,53.1,53.1,29.81,West,267,0.0,0.0,100,0.00,,---,0.02,VWS V14.00,2013-01-15 10:22:00,
2013-01-15 05:25:00,53.1,53.1,29.81,West,267,0.0,0.0,100,0.00,,---,0.02,VWS V14.00,2013-01-15 10:25:00,
2013-01-15 05:28:00,53.1,53.1,29.81,West,267,0.0,0.0,100,0.00,,---,0.02,VWS V14.00,2013-01-15 10:28:00,
2013-01-15 05:30:00,53.1,53.1,29.81,West,267,0.0,0.0,100,0.00,,---,0.02,VWS V14.00,2013-01-15 10:30:00,
2013-01-15 05:31:00,53.1,53.1,29.81,West,267,0.0,0.0,100,0.00,,---,0.02,VWS V14.00,2013-01-15 10:31:00,
2013-01-15 05:34:00,53.1,53.1,29.80,West,267,0.0,0.0,100,0.00,,---,0.02,VWS V14.00,2013-01-15 10:34:00,
2013-01-15 05:37:00,53.1,53.1,29.80,West,267,0.0,0.0,100,0.00,,---,0.02,VWS V14.00,2013-01-15 10:37:00,
2013-01-15 05:40:00,53.1,53.1,29.80,West,267,0.0,0.0,100,0.00,,---,0.02,VWS V14.00,2013-01-15 10:40:00,
2013-01-15 05:43:00,53.1,53.1,29.80,West,267,0.0,0.0,100,0.00,,---,0.02,VWS V14.00,2013-01-15 10:43:00,
2013-01-15 05:46:00,53.1,53.1,29.80,West,267,0.0,0.0,100,0.00,,---,0.02,VWS V14.00,2013-01-15 10:46:00,
2013-01-15 05:49:00,53.1,53.1,29.80,West,267,0.0,0.0,100,0.00,,---,0.02,VWS V14.00,2013-01-15 10:49:00,
2013-01-15 05:52:00,53.1,53.1,29.80,West,267,0.0,0.0,100,0.00,,---,0.02,VWS V14.00,2013-01-15 10:52:00,
2013-01-15 05:55:00,53.1,53.1,29.80,West,267,0.0,0.0,100,0.00,,---,0.02,VWS V14.00,2013-01-15 10:55:00,
2013-01-15 05:58:00,53.1,53.1,29.80,West,267,0.0,0.0,100,0.00,,---,0.02,VWS V14.00,2013-01-15 10:58:00,
2013-01-15 06:00:00,53.1,53.1,29.80,West,267,0.0,0.0,100,0.00,,---,0.02,VWS V14.00,2013-01-15 11:00:00,
2013-01-15 06:01:00,53.1,53.1,29.80,West,267,0.0,0.0,100,0.00,,---,0.02,VWS V14.00,2013-01-15 11:01:00,
2013-01-15 06:07:00,53.1,53.1,29.80,West,267,0.0,0.0,100,0.00,,---,0.02,VWS V14.00,2013-01-15 11:07:00,
2013-01-15 06:10:00,53.1,53.1,29.80,West,267,0.0,0.0,100,0.00,,---,0.02,VWS V14.00,2013-01-15 11:10:00,
2013-01-15 06:13:00,53.1,53.1,29.80,West,267,0.0,0.0,100,0.00,,---,0.02,VWS V14.00,2013-01-15 11:13:00,
2013-01-15 06:16:00,53.1,53.1,29.80,West,267,0.0,0.0,100,0.00,,---,0.02,VWS V14.00,2013-01-15 11:16:00,
2013-01-15 06:19:00,53.1,53.1,29.81,West,267,0.0,0.0,100,0.00,,---,0.02,VWS V14.00,2013-01-15 11:19:00,
2013-01-15 06:22:00,53.1,53.1,29.81,West,267,0.0,0.0,100,0.00,,---,0.02,VWS V14.00,2013-01-15 11:22:00,
2013-01-15 06:25:00,53.1,53.1,29.82,West,267,0.0,0.0,100,0.00,,---,0.02,VWS V14.00,2013-01-15 11:25:00,
2013-01-15 06:28:00,53.1,53.1,29.82,West,267,0.0,0.0,100,0.00,,---,0.02,VWS V14.00,2013-01-15 11:28:00,
2013-01-15 06:29:00,53.1,53.1,29.80,West,267,0.0,0.0,100,0.00,,---,0.02,VWS V14.00,2013-01-15 11:29:00,
2013-01-15 06:30:00,53.1,53.1,29.82,West,267,0.0,0.0,100,0.00,,---,0.02,VWS V14.00,2013-01-15 11:30:00,
2013-01-15 06:31:00,53.1,53.1,29.82,West,267,0.0,0.0,100,0.00,,---,0.02,VWS V14.00,2013-01-15 11:31:00,
2013-01-15 06:34:00,53.1,53.1,29.82,West,267,0.0,0.0,100,0.00,,---,0.02,VWS V14.00,2013-01-15 11:34:00,
2013-01-15 06:37:00,53.1,53.1,29.83,West,267,0.0,0.0,100,0.00,,---,0.02,VWS V14.00,2013-01-15 11:37:00,
2013-01-15 06:40:00,53.1,53.1,29.82,West,267,0.0,0.0,100,0.00,,---,0.02,VWS V14.00,2013-01-15 11:40:00,
2013-01-15 06:46:00,53.1,53.1,29.81,West,267,0.0,0.0,100,0.00,,---,0.02,VWS V14.00,2013-01-15 11:46:00,
2013-01-15 06:52:00,53.1,53.1,29.81,West,267,0.0,0.0,100,0.00,,---,0.02,VWS V14.00,2013-01-15 11:52:00,
2013-01-15 06:55:00,53.1,53.1,29.82,West,267,0.0,0.0,100,0.00,,---,0.02,VWS V14.00,2013-01-15 11:55:00,
2013-01-15 06:58:00,53.1,53.1,29.82,West,267,0.0,0.0,100,0.00,,---,0.02,VWS V14.00,2013-01-15 11:58:00,
2013-01-15 07:00:00,53.1,53.1,29.82,West,267,0.0,0.0,100,0.00,,---,0.02,VWS V14.00,2013-01-15 12:00:00,
2013-01-15 07:01:00,53.1,53.1,29.82,West,267,0.0,0.0,100,0.00,,---,0.02,VWS V14.00,2013-01-15 12:01:00,
2013-01-15 07:08:00,53.1,53.1,29.81,West,267,0.0,0.0,100,0.00,,---,0.02,VWS V14.00,2013-01-15 12:08:00,
2013-01-15 07:14:00,53.1,53.1,29.81,West,267,0.0,0.0,100,0.00,,---,0.02,VWS V14.00,2013-01-15 12:14:00,
2013-01-15 07:22:00,53.1,53.1,29.82,West,267,0.0,0.0,100,0.00,,---,0.02,VWS V14.00,2013-01-15 12:22:00,
2013-01-15 07:25:00,53.1,53.1,29.82,West,267,0.0,0.0,100,0.00,,---,0.02,VWS V14.00,2013-01-15 12:25:00,
2013-01-15 07:28:00,53.1,53.1,29.82,West,267,0.0,0.0,100,0.00,,---,0.02,VWS V14.00,2013-01-15 12:28:00,
2013-01-15 07:29:00,53.1,53.1,29.82,West,267,0.0,0.0,100,0.00,,---,0.02,VWS V14.00,2013-01-15 12:29:00,
2013-01-15 07:30:00,53.1,53.1,29.83,West,267,0.0,0.0,100,0.00,,---,0.02,VWS V14.00,2013-01-15 12:30:00,
2013-01-15 07:35:00,53.1,53.1,29.81,West,267,0.0,0.0,100,0.00,,---,0.02,VWS V14.00,2013-01-15 12:35:00,
2013-01-15 07:38:00,53.1,53.1,29.83,West,267,0.0,0.0,100,0.00,,---,0.02,VWS V14.00,2013-01-15 12:38:00,
2013-01-15 07:41:00,53.1,53.1,29.82,West,267,0.0,0.0,100,0.00,,---,0.02,VWS V14.00,2013-01-15 12:41:00,
2013-01-15 07:44:00,53.1,53.1,29.82,West,267,0.0,0.0,100,0.00,,---,0.02,VWS V14.00,2013-01-15 12:44:00,
2013-01-15 07:47:00,53.1,53.1,29.82,West,267,0.0,0.0,100,0.00,,---,0.02,VWS V14.00,2013-01-15 12:47:00,
2013-01-15 07:50:00,53.1,53.1,29.82,West,267,0.0,0.0,100,0.00,,---,0.02,VWS V14.00,2013-01-15 12:50:00,
2013-01-15 07:53:00,53.1,53.1,29.82,West,267,0.0,0.0,100,0.00,,---,0.02,VWS V14.00,2013-01-15 12:53:00,
2013-01-15 07:56:00,53.1,53.1,29.82,West,267,0.0,0.0,100,0.00,,---,0.02,VWS V14.00,2013-01-15 12:56:00,
2013-01-15 07:59:00,53.1,53.1,29.82,West,267,0.0,0.0,100,0.00,,---,0.02,VWS V14.00,2013-01-15 12:59:00,
2013-01-15 08:00:00,53.1,53.1,29.82,West,267,0.0,0.0,100,0.00,,---,0.02,VWS V14.00,2013-01-15 13:00:00,
2013-01-15 08:02:00,53.1,53.1,29.82,West,267,0.0,0.0,100,0.00,,---,0.02,VWS V14.00,2013-01-15 13:02:00,
2013-01-15 08:05:00,53.1,53.1,29.82,West,267,0.0,0.0,100,0.00,,---,0.02,VWS V14.00,2013-01-15 13:05:00,
2013-01-15 08:08:00,53.1,53.1,29.82,West,267,0.0,0.0,100,0.00,,---,0.02,VWS V14.00,2013-01-15 13:08:00,
2013-01-15 08:11:00,53.1,53.1,29.82,West,267,0.0,0.0,100,0.00,,---,0.02,VWS V14.00,2013-01-15 13:11:00,
2013-01-15 08:14:00,53.1,53.1,29.82,West,267,0.0,0.0,100,0.00,,---,0.02,VWS V14.00,2013-01-15 13:14:00,
2013-01-15 08:17:00,53.1,53.1,29.83,West,267,0.0,0.0,100,0.00,,---,0.02,VWS V14.00,2013-01-15 13:17:00,
2013-01-15 08:20:00,53.1,53.1,29.82,West,267,0.0,0.0,100,0.00,,---,0.02,VWS V14.00,2013-01-15 13:20:00,
2013-01-15 08:23:00,53.1,53.1,29.82,West,267,0.0,0.0,100,0.00,,---,0.02,VWS V14.00,2013-01-15 13:23:00,
2013-01-15 08:26:00,53.1,53.1,29.82,West,267,0.0,0.0,100,0.00,,---,0.02,VWS V14.00,2013-01-15 13:26:00,
2013-01-15 08:29:00,53.1,53.1,29.82,West,267,0.0,0.0,100,0.00,,---,0.02,VWS V14.00,2013-01-15 13:29:00,
2013-01-15 08:30:00,53.1,53.1,29.82,West,267,0.0,0.0,100,0.00,,---,0.02,VWS V14.00,2013-01-15 13:30:00,
2013-01-15 08:32:00,53.1,53.1,29.82,West,267,0.0,0.0,100,0.00,,---,0.02,VWS V14.00,2013-01-15 13:32:00,
2013-01-15 08:35:00,53.1,53.1,29.82,West,267,0.0,0.0,100,0.00,,---,0.02,VWS V14.00,2013-01-15 13:35:00,
2013-01-15 08:38:00,53.1,53.1,29.82,West,267,0.0,0.0,100,0.00,,---,0.02,VWS V14.00,2013-01-15 13:38:00,
2013-01-15 08:41:00,53.1,53.1,29.83,West,267,0.0,0.0,100,0.00,,---,0.02,VWS V14.00,2013-01-15 13:41:00,
2013-01-15 08:44:00,53.1,53.1,29.83,West,267,0.0,0.0,100,0.00,,---,0.02,VWS V14.00,2013-01-15 13:44:00,
2013-01-15 08:47:00,53.1,53.1,29.82,West,267,0.0,0.0,100,0.00,,---,0.02,VWS V14.00,2013-01-15 13:47:00,
2013-01-15 08:50:00,53.1,53.1,29.82,West,267,0.0,0.0,100,0.00,,---,0.02,VWS V14.00,2013-01-15 13:50:00,
2013-01-15 08:53:00,53.1,53.1,29.82,West,267,0.0,0.0,100,0.00,,---,0.02,VWS V14.00,2013-01-15 13:53:00,
2013-01-15 08:56:00,53.1,53.1,29.83,West,267,0.0,0.0,100,0.00,,---,0.02,VWS V14.00,2013-01-15 13:56:00,
2013-01-15 08:59:00,53.1,53.1,29.83,West,267,0.0,0.0,100,0.00,,---,0.02,VWS V14.00,2013-01-15 13:59:00,
2013-01-15 09:00:00,53.1,53.1,29.83,West,267,0.0,0.0,100,0.00,,---,0.02,VWS V14.00,2013-01-15 14:00:00,
2013-01-15 09:02:00,53.1,53.1,29.83,West,267,0.0,0.0,100,0.00,,---,0.02,VWS V14.00,2013-01-15 14:02:00,
2013-01-15 09:05:00,53.1,53.1,29.83,West,267,0.0,0.0,100,0.00,,---,0.02,VWS V14.00,2013-01-15 14:05:00,
2013-01-15 09:08:00,53.1,53.1,29.83,West,267,0.0,0.0,100,0.00,,---,0.02,VWS V14.00,2013-01-15 14:08:00,
2013-01-15 09:11:00,53.1,53.1,29.83,West,267,0.0,0.0,100,0.00,,---,0.02,VWS V14.00,2013-01-15 14:11:00,
2013-01-15 09:14:00,53.1,53.1,29.83,West,267,0.0,0.0,100,0.00,,---,0.02,VWS V14.00,2013-01-15 14:14:00,
2013-01-15 09:17:00,53.1,53.1,29.83,West,267,0.0,0.0,100,0.00,,---,0.02,VWS V14.00,2013-01-15 14:17:00,
2013-01-15 09:20:00,53.1,53.1,29.83,West,267,0.0,0.0,100,0.00,,---,0.02,VWS V14.00,2013-01-15 14:20:00,
2013-01-15 09:23:00,53.1,53.1,29.83,West,267,0.0,0.0,100,0.00,,---,0.02,VWS V14.00,2013-01-15 14:23:00,
2013-01-15 09:26:00,53.1,53.1,29.83,West,267,0.0,0.0,100,0.00,,---,0.02,VWS V14.00,2013-01-15 14:26:00,
2013-01-15 09:29:00,53.1,53.1,29.83,West,267,0.0,0.0,100,0.00,,---,0.02,VWS V14.00,2013-01-15 14:29:00,
2013-01-15 09:30:00,53.1,53.1,29.83,West,267,0.0,0.0,100,0.00,,---,0.02,VWS V14.00,2013-01-15 14:30:00,
2013-01-15 09:32:00,53.1,53.1,29.83,West,267,0.0,0.0,100,0.00,,---,0.02,VWS V14.00,2013-01-15 14:32:00,
2013-01-15 09:35:00,53.1,53.1,29.83,West,267,0.0,0.0,100,0.00,,---,0.02,VWS V14.00,2013-01-15 14:35:00,
2013-01-15 09:38:00,53.1,53.1,29.83,West,267,0.0,0.0,100,0.00,,---,0.02,VWS V14.00,2013-01-15 14:38:00,
2013-01-15 09:41:00,53.1,53.1,29.83,West,267,0.0,0.0,100,0.00,,---,0.02,VWS V14.00,2013-01-15 14:41:00,
2013-01-15 09:44:00,53.1,53.1,29.83,West,267,0.0,0.0,100,0.00,,---,0.02,VWS V14.00,2013-01-15 14:44:00,
2013-01-15 09:47:00,53.1,53.1,29.83,West,267,0.0,0.0,100,0.00,,---,0.02,VWS V14.00,2013-01-15 14:47:00,
2013-01-15 09:50:00,57.6,57.0,29.83,SSE,165,3.0,4.0,98,0.23,,---,0.25,VWS V14.00,2013-01-15 14:50:00,
2013-01-15 09:53:00,57.6,57.0,29.83,SSE,162,3.0,8.0,98,0.24,,---,0.26,VWS V14.00,2013-01-15 14:53:00,
2013-01-15 09:56:00,57.6,57.0,29.83,South,172,4.0,8.0,98,0.25,,---,0.27,VWS V14.00,2013-01-15 14:56:00,
2013-01-15 09:59:00,57.5,56.9,29.83,SSW,200,4.0,8.0,98,0.26,,---,0.28,VWS V14.00,2013-01-15 14:59:00,
2013-01-15 10:00:00,57.5,56.9,29.83,SSE,166,3.0,8.0,98,0.26,,---,0.28,VWS V14.00,2013-01-15 15:00:00,
2013-01-15 10:02:00,57.5,56.9,29.82,SSE,165,2.0,6.0,98,0.27,,---,0.29,VWS V14.00,2013-01-15 15:02:00,
2013-01-15 10:05:00,57.5,56.9,29.82,South,172,3.0,6.0,98,0.28,,---,0.30,VWS V14.00,2013-01-15 15:05:00,
2013-01-15 10:08:00,57.5,56.9,29.82,SSW,207,1.0,6.0,98,0.29,,---,0.31,VWS V14.00,2013-01-15 15:08:00,
2013-01-15 10:11:00,57.6,57.0,29.82,SW,219,0.0,6.0,98,0.29,,---,0.31,VWS V14.00,2013-01-15 15:11:00,
2013-01-15 10:14:00,57.6,57.0,29.82,SSW,197,0.0,6.0,98,0.29,,---,0.31,VWS V14.00,2013-01-15 15:14:00,
2013-01-15 10:17:00,57.6,57.0,29.82,South,187,3.0,6.0,98,0.30,,---,0.32,VWS V14.00,2013-01-15 15:17:00,
2013-01-15 10:20:00,57.6,57.0,29.82,South,176,4.0,6.0,98,0.30,,---,0.32,VWS V14.00,2013-01-15 15:20:00,
2013-01-15 10:23:00,57.6,57.0,29.82,SSW,205,1.0,6.0,98,0.30,,---,0.32,VWS V14.00,2013-01-15 15:23:00,
2013-01-15 10:26:00,57.6,57.0,29.82,South,186,3.0,6.0,98,0.30,,---,0.32,VWS V14.00,2013-01-15 15:26:00,
2013-01-15 10:29:00,57.6,57.0,29.82,South,186,2.0,6.0,98,0.30,,---,0.32,VWS V14.00,2013-01-15 15:29:00,
2013-01-15 10:30:00,57.6,57.0,29.82,South,170,3.0,6.0,98,0.31,,---,0.33,VWS V14.00,2013-01-15 15:30:00,
2013-01-15 10:32:00,57.6,57.0,29.82,SSE,163,4.0,6.0,98,0.31,,---,0.33,VWS V14.00,2013-01-15 15:32:00,
2013-01-15 10:35:00,57.6,57.0,29.82,SSE,166,3.0,6.0,98,0.31,,---,0.33,VWS V14.00,2013-01-15 15:35:00,
2013-01-15 10:38:00,57.6,57.0,29.82,SW,219,2.0,6.0,98,0.32,,---,0.34,VWS V14.00,2013-01-15 15:38:00,
2013-01-15 10:41:00,57.6,57.0,29.82,SSE,153,3.0,6.0,98,0.32,,---,0.34,VWS V14.00,2013-01-15 15:41:00,
2013-01-15 10:44:00,57.5,56.9,29.82,SSE,165,2.0,6.0,98,0.34,,---,0.36,VWS V14.00,2013-01-15 15:44:00,
2013-01-15 10:47:00,57.5,56.9,29.82,SSE,158,1.0,6.0,98,0.35,,---,0.37,VWS V14.00,2013-01-15 15:47:00,
2013-01-15 10:50:00,57.5,56.9,29.82,South,183,2.0,6.0,98,0.37,,---,0.39,VWS V14.00,2013-01-15 15:50:00,
2013-01-15 10:53:00,57.5,56.9,29.82,SSW,211,0.0,6.0,98,0.38,,---,0.40,VWS V14.00,2013-01-15 15:53:00,
2013-01-15 10:56:00,57.5,56.9,29.81,SSW,193,2.0,6.0,98,0.40,,---,0.42,VWS V14.00,2013-01-15 15:56:00,
2013-01-15 10:59:00,57.5,56.9,29.81,SW,223,1.0,6.0,98,0.41,,---,0.43,VWS V14.00,2013-01-15 15:59:00,
2013-01-15 11:00:00,57.4,56.8,29.81,SW,215,1.0,6.0,98,0.41,,---,0.43,VWS V14.00,2013-01-15 16:00:00,
2013-01-15 11:05:00,57.4,56.8,29.81,South,173,3.0,4.0,98,0.17,,---,0.45,VWS V14.00,2013-01-15 16:05:00,
2013-01-15 11:08:00,57.4,56.8,29.80,SW,215,1.0,4.0,98,0.18,,---,0.46,VWS V14.00,2013-01-15 16:08:00,
2013-01-15 11:14:00,57.5,56.9,29.80,SW,233,2.0,4.0,98,0.19,,---,0.47,VWS V14.00,2013-01-15 16:14:00,
2013-01-15 11:17:00,57.5,56.9,29.79,SW,219,1.0,4.0,98,0.20,,---,0.48,VWS V14.00,2013-01-15 16:17:00,
2013-01-15 11:20:00,57.6,57.0,29.79,SW,215,3.0,5.0,98,0.21,,---,0.49,VWS V14.00,2013-01-15 16:20:00,
2013-01-15 11:23:00,57.6,57.0,29.79,SSW,207,3.0,5.0,98,0.21,,---,0.49,VWS V14.00,2013-01-15 16:23:00,
2013-01-15 11:27:00,57.4,56.8,29.81,SSW,203,2.0,3.0,98,0.16,,---,0.44,VWS V14.00,2013-01-15 16:27:00,
2013-01-15 11:30:00,57.6,57.0,29.78,SSW,208,0.0,6.0,98,0.21,,---,0.49,VWS V14.00,2013-01-15 16:30:00,
2013-01-15 11:35:00,57.6,57.0,29.78,SSW,205,0.0,4.0,98,0.16,,---,0.49,VWS V14.00,2013-01-15 16:35:00,
2013-01-15 11:36:00,57.5,56.9,29.80,SW,225,3.0,4.0,98,0.19,,---,0.47,VWS V14.00,2013-01-15 16:36:00,
2013-01-15 11:41:00,57.6,56.8,29.79,SW,234,4.0,4.0,97,0.17,,---,0.50,VWS V14.00,2013-01-15 16:41:00,
2013-01-15 11:50:00,57.6,56.8,29.78,SSE,148,4.0,4.0,97,0.20,,---,0.53,VWS V14.00,2013-01-15 16:50:00,
2013-01-15 11:51:00,57.6,57.0,29.79,WSW,240,4.0,5.0,98,0.21,,---,0.49,VWS V14.00,2013-01-15 16:51:00,
2013-01-15 11:56:00,57.5,56.7,29.78,South,176,4.0,5.0,97,0.22,,---,0.55,VWS V14.00,2013-01-15 16:56:00,
2013-01-15 11:57:00,57.6,57.0,29.78,SW,225,3.0,4.0,98,0.16,,---,0.49,VWS V14.00,2013-01-15 16:57:00,
2013-01-15 12:00:00,57.4,56.6,29.78,SSE,166,3.0,7.0,97,0.23,,---,0.56,VWS V14.00,2013-01-15 17:00:00,
2013-01-15 12:02:00,57.4,56.6,29.78,SW,224,1.0,5.0,97,0.13,,---,0.56,VWS V14.00,2013-01-15 17:02:00,
2013-01-15 12:03:00,57.6,56.8,29.78,SW,217,3.0,4.0,97,0.17,,---,0.50,VWS V14.00,2013-01-15 17:03:00,
2013-01-15 12:05:00,57.4,56.6,29.78,South,173,2.0,5.0,97,0.14,,---,0.57,VWS V14.00,2013-01-15 17:05:00,
2013-01-15 12:08:00,57.4,56.8,29.77,SSE,158,2.0,5.0,98,0.14,,---,0.57,VWS V14.00,2013-01-15 17:08:00,
2013-01-15 12:09:00,57.6,56.8,29.79,SW,221,1.0,4.0,97,0.18,,---,0.51,VWS V14.00,2013-01-15 17:09:00,
2013-01-15 12:14:00,57.4,56.6,29.76,SW,217,2.0,5.0,97,0.16,,---,0.59,VWS V14.00,2013-01-15 17:14:00,
2013-01-15 12:17:00,57.4,56.8,29.76,SW,226,3.0,5.0,98,0.17,,---,0.60,VWS V14.00,2013-01-15 17:17:00,
2013-01-15 12:18:00,57.6,56.8,29.78,South,180,1.0,5.0,97,0.21,,---,0.54,VWS V14.00,2013-01-15 17:18:00,
2013-01-15 12:24:00,57.5,56.7,29.77,SW,218,3.0,7.0,97,0.22,,---,0.55,VWS V14.00,2013-01-15 17:24:00,
2013-01-15 12:29:00,57.3,56.7,29.76,SW,225,2.0,7.0,98,0.18,,---,0.61,VWS V14.00,2013-01-15 17:29:00,
2013-01-15 12:30:00,57.3,56.7,29.76,South,169,3.0,7.0,98,0.18,,---,0.61,VWS V14.00,2013-01-15 17:30:00,
2013-01-15 12:32:00,57.3,56.7,29.76,SW,219,3.0,6.0,98,0.13,,---,0.62,VWS V14.00,2013-01-15 17:32:00,
2013-01-15 12:35:00,57.3,56.7,29.76,SW,214,1.0,6.0,98,0.13,,---,0.62,VWS V14.00,2013-01-15 17:35:00,
2013-01-15 12:36:00,57.4,56.6,29.77,SW,223,1.0,5.0,97,0.15,,---,0.58,VWS V14.00,2013-01-15 17:36:00,
2013-01-15 12:38:00,57.4,56.8,29.75,South,184,2.0,6.0,98,0.14,,---,0.63,VWS V14.00,2013-01-15 17:38:00,
2013-01-15 12:41:00,57.4,56.8,29.75,SSW,202,2.0,6.0,98,0.15,,---,0.64,VWS V14.00,2013-01-15 17:41:00,
2013-01-15 12:45:00,57.3,56.7,29.76,WSW,246,2.0,6.0,98,0.17,,---,0.60,VWS V14.00,2013-01-15 17:45:00,
2013-01-15 12:47:00,57.4,56.8,29.75,SW,221,5.0,6.0,98,0.16,,---,0.65,VWS V14.00,2013-01-15 17:47:00,
2013-01-15 12:50:00,57.3,56.7,29.75,SW,221,3.0,6.0,98,0.16,,---,0.65,VWS V14.00,2013-01-15 17:50:00,
2013-01-15 12:51:00,57.3,56.7,29.76,SW,226,5.0,6.0,98,0.18,,---,0.61,VWS V14.00,2013-01-15 17:51:00,
2013-01-15 12:53:00,57.4,56.8,29.75,SSW,193,1.0,6.0,98,0.16,,---,0.65,VWS V14.00,2013-01-15 17:53:00,
2013-01-15 12:56:00,57.4,56.8,29.75,SW,228,3.0,7.0,98,0.16,,---,0.65,VWS V14.00,2013-01-15 17:56:00,
2013-01-15 13:00:00,57.4,56.8,29.75,South,169,2.0,7.0,98,0.16,,---,0.65,VWS V14.00,2013-01-15 18:00:00,
2013-01-15 13:02:00,57.4,56.8,29.75,SSW,198,4.0,7.0,98,0.10,,---,0.66,VWS V14.00,2013-01-15 18:02:00,
2013-01-15 13:05:00,57.4,56.6,29.75,SSW,204,3.0,7.0,97,0.10,,---,0.66,VWS V14.00,2013-01-15 18:05:00,
2013-01-15 13:08:00,57.4,56.6,29.75,SW,226,8.0,10.0,97,0.10,,---,0.66,VWS V14.00,2013-01-15 18:08:00,
2013-01-15 13:09:00,57.4,56.8,29.75,SSW,213,3.0,6.0,98,0.15,,---,0.64,VWS V14.00,2013-01-15 18:09:00,
2013-01-15 13:11:00,57.4,56.6,29.74,SSW,194,4.0,10.0,97,0.10,,---,0.66,VWS V14.00,2013-01-15 18:11:00,
2013-01-15 13:14:00,57.4,56.6,29.74,SSE,163,3.0,10.0,97,0.11,,---,0.67,VWS V14.00,2013-01-15 18:14:00,
2013-01-15 13:18:00,57.4,56.6,29.74,WSW,237,2.0,10.0,97,0.12,,---,0.68,VWS V14.00,2013-01-15 18:18:00,
2013-01-15 13:21:00,57.4,56.6,29.74,SSW,204,2.0,10.0,97,0.13,,---,0.69,VWS V14.00,2013-01-15 18:21:00,
2013-01-15 13:24:00,57.4,56.8,29.75,SW,217,2.0,7.0,98,0.16,,---,0.65,VWS V14.00,2013-01-15 18:24:00,
2013-01-15 13:27:00,57.4,56.6,29.74,South,189,2.0,10.0,97,0.14,,---,0.70,VWS V14.00,2013-01-15 18:27:00,
2013-01-15 13:30:00,57.4,56.6,29.74,WSW,240,3.0,10.0,97,0.14,,---,0.70,VWS V14.00,2013-01-15 18:30:00,
2013-01-15 13:33:00,57.4,56.8,29.73,SW,229,2.0,3.0,98,0.09,,---,0.70,VWS V14.00,2013-01-15 18:33:00,
2013-01-15 13:36:00,57.4,56.8,29.73,SW,229,1.0,4.0,98,0.10,,---,0.71,VWS V14.00,2013-01-15 18:36:00,
2013-01-15 13:39:00,57.5,56.9,29.73,SW,225,1.0,4.0,98,0.10,,---,0.71,VWS V14.00,2013-01-15 18:39:00,
2013-01-15 13:42:00,57.5,56.9,29.73,WSW,240,2.0,5.0,98,0.10,,---,0.71,VWS V14.00,2013-01-15 18:42:00,
2013-01-15 13:45:00,57.4,56.8,29.73,West,263,1.0,5.0,98,0.11,,---,0.72,VWS V14.00,2013-01-15 18:45:00,
2013-01-15 13:48:00,57.4,56.8,29.72,SW,222,4.0,5.0,98,0.12,,---,0.73,VWS V14.00,2013-01-15 18:48:00,
2013-01-15 13:51:00,57.4,56.8,29.73,SW,217,2.0,5.0,98,0.13,,---,0.74,VWS V14.00,2013-01-15 18:51:00,
2013-01-15 13:54:00,57.4,56.8,29.72,SW,229,4.0,6.0,98,0.13,,---,0.74,VWS V14.00,2013-01-15 18:54:00,
2013-01-15 13:57:00,57.4,56.8,29.72,WSW,252,6.0,6.0,98,0.14,,---,0.75,VWS V14.00,2013-01-15 18:57:00,
2013-01-15 14:00:00,57.4,56.8,29.72,SW,214,3.0,6.0,98,0.15,,---,0.76,VWS V14.00,2013-01-15 19:00:00,
2013-01-15 14:03:00,57.5,56.9,29.72,SW,232,3.0,6.0,98,0.12,,---,0.77,VWS V14.00,2013-01-15 19:03:00,
2013-01-15 14:06:00,57.5,56.9,29.72,SW,231,3.0,6.0,98,0.12,,---,0.77,VWS V14.00,2013-01-15 19:06:00,
2013-01-15 14:09:00,57.5,56.9,29.72,SW,214,8.0,9.0,98,0.12,,---,0.77,VWS V14.00,2013-01-15 19:09:00,
2013-01-15 14:12:00,57.5,56.9,29.73,SW,228,10.0,10.0,98,0.13,,---,0.78,VWS V14.00,2013-01-15 19:12:00,
2013-01-15 14:15:00,57.6,56.8,29.72,West,281,3.0,11.0,97,0.13,,---,0.78,VWS V14.00,2013-01-15 19:15:00,
2013-01-15 14:18:00,57.6,56.8,29.73,SSW,198,2.0,11.0,97,0.13,,---,0.78,VWS V14.00,2013-01-15 19:18:00,
2013-01-15 14:21:00,57.6,57.0,29.73,SSW,210,3.0,11.0,98,0.13,,---,0.78,VWS V14.00,2013-01-15 19:21:00,
2013-01-15 14:24:00,57.6,57.0,29.73,SW,234,5.0,11.0,98,0.13,,---,0.78,VWS V14.00,2013-01-15 19:24:00,
2013-01-15 14:27:00,57.6,57.0,29.72,WSW,240,4.0,11.0,98,0.13,,---,0.78,VWS V14.00,2013-01-15 19:27:00,
2013-01-15 14:30:00,57.7,57.1,29.73,SW,215,4.0,11.0,98,0.14,,---,0.79,VWS V14.00,2013-01-15 19:30:00,
2013-01-15 14:33:00,57.7,57.1,29.73,SW,221,3.0,6.0,98,0.09,,---,0.79,VWS V14.00,2013-01-15 19:33:00,
2013-01-15 14:36:00,57.7,57.1,29.73,SW,221,5.0,8.0,98,0.09,,---,0.79,VWS V14.00,2013-01-15 19:36:00,
2013-01-15 14:39:00,57.7,57.1,29.73,SW,229,3.0,9.0,98,0.10,,---,0.80,VWS V14.00,2013-01-15 19:39:00,
2013-01-15 14:42:00,57.6,57.0,29.73,WSW,246,6.0,9.0,98,0.10,,---,0.80,VWS V14.00,2013-01-15 19:42:00,
2013-01-15 14:45:00,57.6,56.8,29.73,South,169,5.0,9.0,97,0.10,,---,0.80,VWS V14.00,2013-01-15 19:45:00,
2013-01-15 14:48:00,57.5,56.7,29.73,SSW,205,3.0,9.0,97,0.11,,---,0.81,VWS V14.00,2013-01-15 19:48:00,
2013-01-15 14:51:00,57.5,56.7,29.73,SW,222,7.0,9.0,97,0.11,,---,0.81,VWS V14.00,2013-01-15 19:51:00,
2013-01-15 14:54:00,57.4,56.6,29.73,SW,219,4.0,9.0,97,0.12,,---,0.82,VWS V14.00,2013-01-15 19:54:00,
2013-01-15 14:57:00,57.3,56.5,29.73,SSW,213,4.0,9.0,97,0.13,,---,0.83,VWS V14.00,2013-01-15 19:57:00,
2013-01-15 15:00:00,57.3,56.5,29.73,SW,229,5.0,9.0,97,0.13,,---,0.83,VWS V14.00,2013-01-15 20:00:00,
2013-01-15 15:03:00,57.2,56.4,29.73,SSW,205,4.0,8.0,97,0.08,,---,0.84,VWS V14.00,2013-01-15 20:03:00,
2013-01-15 15:06:00,57.2,56.4,29.73,SW,222,5.0,8.0,97,0.09,,---,0.85,VWS V14.00,2013-01-15 20:06:00,
2013-01-15 15:09:00,57.1,56.3,29.73,SW,223,5.0,8.0,97,0.09,,---,0.85,VWS V14.00,2013-01-15 20:09:00,
2013-01-15 15:12:00,57.1,56.3,29.73,West,271,2.0,8.0,97,0.10,,---,0.86,VWS V14.00,2013-01-15 20:12:00,
2013-01-15 15:15:00,57.0,56.2,29.74,SW,234,7.0,8.0,97,0.11,,---,0.87,VWS V14.00,2013-01-15 20:15:00,
2013-01-15 15:18:00,57.0,56.2,29.74,SW,219,7.0,8.0,97,0.12,,---,0.88,VWS V14.00,2013-01-15 20:18:00,
2013-01-15 15:21:00,57.0,56.2,29.73,WSW,240,2.0,9.0,97,0.12,,---,0.88,VWS V14.00,2013-01-15 20:21:00,
2013-01-15 15:24:00,56.9,56.1,29.74,WSW,245,4.0,9.0,97,0.13,,---,0.89,VWS V14.00,2013-01-15 20:24:00,
2013-01-15 15:27:00,56.9,56.1,29.74,WSW,243,9.0,9.0,97,0.13,,---,0.89,VWS V14.00,2013-01-15 20:27:00,
2013-01-15 15:30:00,56.9,56.1,29.74,SSW,207,4.0,9.0,97,0.13,,---,0.89,VWS V14.00,2013-01-15 20:30:00,
2013-01-15 15:33:00,56.9,56.1,29.73,SSW,210,7.0,9.0,97,0.11,,---,0.90,VWS V14.00,2013-01-15 20:33:00,
2013-01-15 15:36:00,56.8,56.0,29.74,West,268,3.0,9.0,97,0.12,,---,0.91,VWS V14.00,2013-01-15 20:36:00,
2013-01-15 15:39:00,56.7,55.9,29.74,SSW,211,4.0,9.0,97,0.12,,---,0.91,VWS V14.00,2013-01-15 20:39:00,
2013-01-15 15:42:00,56.7,55.9,29.74,SSW,201,2.0,9.0,97,0.12,,---,0.91,VWS V14.00,2013-01-15 20:42:00,
2013-01-15 15:45:00,56.6,55.8,29.74,WSW,256,4.0,9.0,97,0.13,,---,0.92,VWS V14.00,2013-01-15 20:45:00,
2013-01-15 15:48:00,56.6,55.8,29.74,SSW,212,1.0,9.0,97,0.13,,---,0.92,VWS V14.00,2013-01-15 20:48:00,
2013-01-15 15:51:00,56.6,55.8,29.74,SSW,210,2.0,9.0,97,0.14,,---,0.93,VWS V14.00,2013-01-15 20:51:00,
2013-01-15 15:54:00,56.5,55.7,29.74,South,187,4.0,9.0,97,0.14,,---,0.93,VWS V14.00,2013-01-15 20:54:00,
2013-01-15 15:57:00,56.5,55.7,29.74,WSW,238,4.0,9.0,97,0.15,,---,0.94,VWS V14.00,2013-01-15 20:57:00,
2013-01-15 16:00:00,56.5,55.7,29.74,SW,221,6.0,9.0,97,0.15,,---,0.94,VWS V14.00,2013-01-15 21:00:00,
2013-01-15 16:03:00,56.5,55.7,29.74,SSW,212,4.0,6.0,97,0.11,,---,0.94,VWS V14.00,2013-01-15 21:03:00,
2013-01-15 16:06:00,56.5,55.7,29.74,SW,224,4.0,6.0,97,0.12,,---,0.95,VWS V14.00,2013-01-15 21:06:00,
2013-01-15 16:09:00,56.5,55.9,29.73,SSW,205,5.0,6.0,98,0.12,,---,0.95,VWS V14.00,2013-01-15 21:09:00,
2013-01-15 16:12:00,56.5,55.9,29.73,SSE,148,2.0,6.0,98,0.12,,---,0.95,VWS V14.00,2013-01-15 21:12:00,
2013-01-15 16:15:00,56.5,55.9,29.73,SW,226,3.0,6.0,98,0.12,,---,0.95,VWS V14.00,2013-01-15 21:15:00,
2013-01-15 16:18:00,56.5,55.9,29.73,SW,214,3.0,8.0,98,0.12,,---,0.95,VWS V14.00,2013-01-15 21:18:00,
2013-01-15 16:21:00,56.5,55.9,29.74,WSW,243,6.0,8.0,98,0.13,,---,0.96,VWS V14.00,2013-01-15 21:21:00,
2013-01-15 16:24:00,56.5,55.9,29.74,WSW,249,6.0,8.0,98,0.13,,---,0.96,VWS V14.00,2013-01-15 21:24:00,
2013-01-15 16:27:00,56.5,55.9,29.74,SW,217,4.0,8.0,98,0.14,,---,0.97,VWS V14.00,2013-01-15 21:27:00,
2013-01-15 16:30:00,56.5,55.9,29.75,SSW,195,3.0,8.0,98,0.14,,---,0.97,VWS V14.00,2013-01-15 21:30:00,
2013-01-15 16:33:00,56.5,55.9,29.75,SW,223,3.0,8.0,98,0.09,,---,0.98,VWS V14.00,2013-01-15 21:33:00,
2013-01-15 16:36:00,56.6,56.0,29.75,WNW,301,3.0,9.0,98,0.10,,---,0.99,VWS V14.00,2013-01-15 21:36:00,
2013-01-15 16:39:00,56.6,56.0,29.75,SW,217,5.0,9.0,98,0.12,,---,1.01,VWS V14.00,2013-01-15 21:39:00,
2013-01-15 16:42:00,56.7,56.1,29.75,SW,231,4.0,9.0,98,0.12,,---,1.01,VWS V14.00,2013-01-15 21:42:00,
2013-01-15 16:45:00,56.7,56.1,29.75,SW,218,6.0,9.0,98,0.13,,---,1.02,VWS V14.00,2013-01-15 21:45:00,
2013-01-15 16:48:00,56.7,56.1,29.75,SW,228,7.0,9.0,98,0.13,,---,1.02,VWS V14.00,2013-01-15 21:48:00,
2013-01-15 16:51:00,56.6,56.0,29.75,SW,231,2.0,9.0,98,0.14,,---,1.03,VWS V14.00,2013-01-15 21:51:00,
2013-01-15 16:54:00,56.6,56.0,29.75,SSW,210,2.0,9.0,98,0.15,,---,1.04,VWS V14.00,2013-01-15 21:54:00,
2013-01-15 16:57:00,56.6,56.0,29.75,SW,214,5.0,9.0,98,0.16,,---,1.05,VWS V14.00,2013-01-15 21:57:00,
2013-01-15 17:00:00,56.6,56.0,29.75,SW,225,5.0,9.0,98,0.16,,---,1.05,VWS V14.00,2013-01-15 22:00:00,
2013-01-15 17:03:00,56.5,55.9,29.75,SW,224,6.0,10.0,98,0.12,,---,1.06,VWS V14.00,2013-01-15 22:03:00,
2013-01-15 17:06:00,56.5,55.9,29.75,SW,229,6.0,10.0,98,0.12,,---,1.06,VWS V14.00,2013-01-15 22:06:00,
2013-01-15 17:09:00,56.5,55.9,29.75,SSW,195,5.0,10.0,98,0.12,,---,1.06,VWS V14.00,2013-01-15 22:09:00,
2013-01-15 17:12:00,56.4,55.8,29.75,SW,223,8.0,10.0,98,0.13,,---,1.07,VWS V14.00,2013-01-15 22:12:00,
2013-01-15 17:15:00,56.4,55.8,29.75,SW,225,3.0,10.0,98,0.13,,---,1.07,VWS V14.00,2013-01-15 22:15:00,
2013-01-15 17:18:00,56.4,55.8,29.75,WSW,256,5.0,10.0,98,0.13,,---,1.07,VWS V14.00,2013-01-15 22:18:00,
2013-01-15 17:21:00,56.4,55.8,29.75,SW,236,3.0,10.0,98,0.14,,---,1.08,VWS V14.00,2013-01-15 22:21:00,
2013-01-15 17:24:00,56.4,55.8,29.75,SSW,208,2.0,10.0,98,0.15,,---,1.09,VWS V14.00,2013-01-15 22:24:00,
2013-01-15 17:27:00,56.4,55.8,29.75,SSW,203,4.0,10.0,98,0.15,,---,1.09,VWS V14.00,2013-01-15 22:27:00,
2013-01-15 17:30:00,56.5,55.9,29.75,WSW,253,9.0,10.0,98,0.15,,---,1.09,VWS V14.00,2013-01-15 22:30:00,
2013-01-15 17:33:00,56.5,55.9,29.75,SSW,212,6.0,9.0,98,0.12,,---,1.09,VWS V14.00,2013-01-15 22:33:00,
2013-01-15 17:36:00,56.5,55.9,29.76,SW,226,3.0,9.0,98,0.12,,---,1.09,VWS V14.00,2013-01-15 22:36:00,
2013-01-15 17:39:00,56.5,55.9,29.75,SSW,192,5.0,10.0,98,0.13,,---,1.10,VWS V14.00,2013-01-15 22:39:00,
2013-01-15 17:42:00,56.5,55.9,29.75,SW,217,6.0,10.0,98,0.13,,---,1.10,VWS V14.00,2013-01-15 22:42:00,
2013-01-15 17:45:00,56.5,55.9,29.75,WSW,243,5.0,10.0,98,0.13,,---,1.10,VWS V14.00,2013-01-15 22:45:00,
2013-01-15 17:48:00,56.5,55.9,29.75,SSW,195,1.0,10.0,98,0.13,,---,1.10,VWS V14.00,2013-01-15 22:48:00,
2013-01-15 17:51:00,56.4,55.8,29.75,WSW,243,2.0,10.0,98,0.14,,---,1.11,VWS V14.00,2013-01-15 22:51:00,
2013-01-15 17:54:00,56.4,55.8,29.75,WSW,248,4.0,10.0,98,0.14,,---,1.11,VWS V14.00,2013-01-15 22:54:00,
2013-01-15 17:57:00,56.3,55.8,29.75,WSW,257,2.0,10.0,98,0.14,,---,1.11,VWS V14.00,2013-01-15 22:57:00,
2013-01-15 18:00:00,56.3,55.8,29.75,WSW,238,5.0,10.0,98,0.14,,---,1.11,VWS V14.00,2013-01-15 23:00:00,
2013-01-15 18:03:00,56.4,55.8,29.75,SW,233,2.0,7.0,98,0.07,,---,1.12,VWS V14.00,2013-01-15 23:03:00,
2013-01-15 18:06:00,56.4,55.8,29.76,SW,219,4.0,7.0,98,0.07,,---,1.12,VWS V14.00,2013-01-15 23:06:00,
2013-01-15 18:09:00,56.3,55.8,29.76,West,281,1.0,7.0,98,0.08,,---,1.13,VWS V14.00,2013-01-15 23:09:00,
2013-01-15 18:12:00,56.3,55.8,29.76,WSW,240,3.0,7.0,98,0.08,,---,1.13,VWS V14.00,2013-01-15 23:12:00,
2013-01-15 18:16:00,56.3,55.8,29.76,WNW,285,1.0,7.0,98,0.09,,---,1.14,VWS V14.00,2013-01-15 23:16:00,
2013-01-15 18:19:00,56.2,55.7,29.76,WNW,284,2.0,7.0,98,0.09,,---,1.14,VWS V14.00,2013-01-15 23:19:00,
2013-01-15 18:22:00,56.2,55.7,29.76,SW,232,4.0,7.0,98,0.10,,---,1.15,VWS V14.00,2013-01-15 23:22:00,
2013-01-15 18:25:00,56.2,55.7,29.76,WSW,240,2.0,7.0,98,0.10,,---,1.15,VWS V14.00,2013-01-15 23:25:00,
2013-01-15 18:28:00,56.2,55.7,29.76,WSW,243,2.0,7.0,98,0.11,,---,1.16,VWS V14.00,2013-01-15 23:28:00,
2013-01-15 18:30:00,56.2,55.7,29.76,SW,221,1.0,7.0,98,0.11,,---,1.16,VWS V14.00,2013-01-15 23:30:00,
2013-01-15 18:31:00,56.2,55.7,29.76,SSW,203,1.0,2.0,98,0.07,,---,1.16,VWS V14.00,2013-01-15 23:31:00,
2013-01-15 18:34:00,56.2,55.7,29.76,SW,219,2.0,4.0,98,0.08,,---,1.17,VWS V14.00,2013-01-15 23:34:00,
2013-01-15 18:37:00,56.1,55.5,29.75,West,264,2.0,4.0,98,0.08,,---,1.17,VWS V14.00,2013-01-15 23:37:00,
2013-01-15 18:40:00,56.1,55.5,29.75,SW,224,5.0,5.0,98,0.09,,---,1.18,VWS V14.00,2013-01-15 23:40:00,
2013-01-15 18:43:00,56.1,55.5,29.75,South,188,3.0,9.0,98,0.09,,---,1.18,VWS V14.00,2013-01-15 23:43:00,
2013-01-15 18:46:00,56.1,55.5,29.75,SW,231,2.0,9.0,98,0.09,,---,1.18,VWS V14.00,2013-01-15 23:46:00,
2013-01-15 18:49:00,56.1,55.5,29.75,SW,217,1.0,9.0,98,0.09,,---,1.18,VWS V14.00,2013-01-15 23:49:00,
2013-01-15 18:52:00,56.1,55.5,29.75,SSW,213,3.0,9.0,98,0.09,,---,1.18,VWS V14.00,2013-01-15 23:52:00,
2013-01-15 18:55:00,56.1,55.5,29.75,SW,222,3.0,9.0,98,0.10,,---,1.19,VWS V14.00,2013-01-15 23:55:00,
2013-01-15 18:58:00,56.1,55.5,29.75,SSW,212,2.0,9.0,98,0.10,,---,1.19,VWS V14.00,2013-01-15 23:58:00,
2013-01-15 19:00:00,56.0,55.5,29.75,South,172,2.0,9.0,98,0.10,,---,1.19,VWS V14.00,2013-01-16 00:00:00,
2013-01-15 19:01:00,56.0,55.5,29.75,SSW,212,2.0,3.0,98,0.08,,---,1.19,VWS V14.00,2013-01-16 00:01:00,
2013-01-15 19:04:00,56.0,55.5,29.74,WNW,293,1.0,4.0,98,0.08,,---,1.19,VWS V14.00,2013-01-16 00:04:00,
2013-01-15 19:07:00,56.0,55.5,29.74,SSW,207,4.0,5.0,98,0.08,,---,1.19,VWS V14.00,2013-01-16 00:07:00,
2013-01-15 19:10:00,56.0,55.5,29.75,SW,219,2.0,6.0,98,0.08,,---,1.19,VWS V14.00,2013-01-16 00:10:00,
2013-01-15 19:13:00,56.0,55.5,29.75,WSW,255,3.0,6.0,98,0.09,,---,1.20,VWS V14.00,2013-01-16 00:13:00,
2013-01-15 19:16:00,56.0,55.5,29.75,WSW,250,4.0,6.0,98,0.09,,---,1.20,VWS V14.00,2013-01-16 00:16:00,
2013-01-15 19:19:00,56.0,55.5,29.75,SW,229,2.0,6.0,98,0.10,,---,1.21,VWS V14.00,2013-01-16 00:19:00,
2013-01-15 19:22:00,55.9,55.3,29.75,West,281,1.0,7.0,98,0.10,,---,1.21,VWS V14.00,2013-01-16 00:22:00,
2013-01-15 19:25:00,56.0,55.5,29.75,SW,233,1.0,7.0,98,0.10,,---,1.21,VWS V14.00,2013-01-16 00:25:00,
2013-01-15 19:28:00,56.0,55.5,29.75,West,272,0.0,7.0,98,0.10,,---,1.21,VWS V14.00,2013-01-16 00:28:00,
2013-01-15 19:30:00,56.0,55.5,29.75,SSW,198,2.0,7.0,98,0.11,,---,1.22,VWS V14.00,2013-01-16 00:30:00,
2013-01-15 19:31:00,56.0,55.5,29.74,SW,235,3.0,5.0,98,0.06,,---,1.22,VWS V14.00,2013-01-16 00:31:00,
2013-01-15 19:34:00,56.0,55.5,29.74,WNW,293,1.0,5.0,98,0.06,,---,1.22,VWS V14.00,2013-01-16 00:34:00,
2013-01-15 19:37:00,56.0,55.5,29.74,SSW,207,3.0,5.0,98,0.07,,---,1.23,VWS V14.00,2013-01-16 00:37:00,
2013-01-15 19:40:00,56.0,55.5,29.74,WSW,250,3.0,5.0,98,0.07,,---,1.23,VWS V14.00,2013-01-16 00:40:00,
2013-01-15 19:43:00,56.0,55.5,29.75,WSW,240,5.0,6.0,98,0.07,,---,1.23,VWS V14.00,2013-01-16 00:43:00,
2013-01-15 19:46:00,56.0,55.5,29.75,WNW,290,2.0,6.0,98,0.07,,---,1.23,VWS V14.00,2013-01-16 00:46:00,
2013-01-15 19:49:00,56.0,55.5,29.75,SW,229,3.0,6.0,98,0.08,,---,1.24,VWS V14.00,2013-01-16 00:49:00,
2013-01-15 19:52:00,56.1,55.5,29.75,SSE,163,0.0,6.0,98,0.08,,---,1.24,VWS V14.00,2013-01-16 00:52:00,
2013-01-15 19:55:00,56.1,55.5,29.74,SSE,167,3.0,6.0,98,0.08,,---,1.24,VWS V14.00,2013-01-16 00:55:00,
2013-01-15 19:58:00,56.2,55.7,29.74,SSW,207,2.0,7.0,98,0.08,,---,1.24,VWS V14.00,2013-01-16 00:58:00,
2013-01-15 20:00:00,56.2,55.7,29.75,SSE,166,5.0,7.0,98,0.09,,---,1.25,VWS V14.00,2013-01-16 01:00:00,
2013-01-15 20:01:00,56.2,55.7,29.74,SSE,166,4.0,7.0,98,0.06,,---,1.25,VWS V14.00,2013-01-16 01:01:00,
2013-01-15 20:04:00,56.3,55.8,29.74,SSE,166,6.0,9.0,98,0.07,,---,1.26,VWS V14.00,2013-01-16 01:04:00,
2013-01-15 20:07:00,56.3,55.8,29.74,SW,224,6.0,9.0,98,0.08,,---,1.27,VWS V14.00,2013-01-16 01:07:00,
2013-01-15 20:10:00,56.3,55.8,29.75,SSE,165,7.0,9.0,98,0.08,,---,1.27,VWS V14.00,2013-01-16 01:10:00,
2013-01-15 20:13:00,56.2,55.4,29.74,SSE,164,4.0,9.0,97,0.08,,---,1.27,VWS V14.00,2013-01-16 01:13:00,
2013-01-15 20:16:00,56.1,55.3,29.74,SSW,197,2.0,9.0,97,0.08,,---,1.27,VWS V14.00,2013-01-16 01:16:00,
2013-01-15 20:19:00,56.1,55.3,29.74,SW,214,2.0,9.0,97,0.08,,---,1.27,VWS V14.00,2013-01-16 01:19:00,
2013-01-15 20:22:00,56.1,55.5,29.74,SW,219,4.0,9.0,98,0.08,,---,1.27,VWS V14.00,2013-01-16 01:22:00,
2013-01-15 20:25:00,56.0,55.5,29.74,SW,228,3.0,9.0,98,0.08,,---,1.27,VWS V14.00,2013-01-16 01:25:00,
2013-01-15 20:28:00,56.0,55.5,29.74,SSE,160,5.0,9.0,98,0.09,,---,1.28,VWS V14.00,2013-01-16 01:28:00,
2013-01-15 20:30:00,56.0,55.5,29.74,SSE,160,7.0,9.0,98,0.09,,---,1.28,VWS V14.00,2013-01-16 01:30:00,
2013-01-15 20:31:00,56.0,55.5,29.73,SSE,150,4.0,7.0,98,0.06,,---,1.28,VWS V14.00,2013-01-16 01:31:00,
2013-01-15 20:34:00,56.0,55.5,29.73,SSW,194,5.0,7.0,98,0.06,,---,1.28,VWS V14.00,2013-01-16 01:34:00,
2013-01-15 20:37:00,56.0,55.5,29.74,SSE,159,3.0,8.0,98,0.06,,---,1.28,VWS V14.00,2013-01-16 01:37:00,
2013-01-15 20:40:00,56.0,55.5,29.73,SW,218,3.0,8.0,98,0.08,,---,1.30,VWS V14.00,2013-01-16 01:40:00,
2013-01-15 20:43:00,56.0,55.5,29.73,SW,214,3.0,8.0,98,0.08,,---,1.30,VWS V14.00,2013-01-16 01:43:00,
2013-01-15 20:46:00,56.0,55.5,29.73,SW,229,3.0,8.0,98,0.08,,---,1.30,VWS V14.00,2013-01-16 01:46:00,
2013-01-15 20:49:00,56.0,55.5,29.73,South,176,4.0,8.0,98,0.09,,---,1.31,VWS V14.00,2013-01-16 01:49:00,
2013-01-15 20:52:00,56.0,55.5,29.73,SW,227,5.0,8.0,98,0.09,,---,1.31,VWS V14.00,2013-01-16 01:52:00,
2013-01-15 20:55:00,56.1,55.5,29.73,SW,218,3.0,8.0,98,0.09,,---,1.31,VWS V14.00,2013-01-16 01:55:00,
2013-01-15 20:58:00,56.1,55.5,29.73,SSE,166,2.0,8.0,98,0.09,,---,1.31,VWS V14.00,2013-01-16 01:58:00,
2013-01-15 21:00:00,56.2,55.7,29.73,SW,224,3.0,8.0,98,0.09,,---,1.31,VWS V14.00,2013-01-16 02:00:00,
2013-01-15 21:01:00,56.2,55.7,29.73,SW,222,2.0,4.0,98,0.06,,---,1.31,VWS V14.00,2013-01-16 02:01:00,
2013-01-15 21:04:00,56.2,55.7,29.74,SSW,210,3.0,6.0,98,0.07,,---,1.32,VWS V14.00,2013-01-16 02:04:00,
2013-01-15 21:07:00,56.2,55.7,29.74,SSW,212,2.0,6.0,98,0.07,,---,1.32,VWS V14.00,2013-01-16 02:07:00,
2013-01-15 21:10:00,56.2,55.7,29.74,SE,145,3.0,6.0,98,0.07,,---,1.32,VWS V14.00,2013-01-16 02:10:00,
2013-01-15 21:13:00,56.3,55.8,29.74,South,173,3.0,6.0,98,0.07,,---,1.32,VWS V14.00,2013-01-16 02:13:00,
2013-01-15 21:16:00,56.3,55.8,29.74,SSE,166,4.0,7.0,98,0.07,,---,1.32,VWS V14.00,2013-01-16 02:16:00,
2013-01-15 21:19:00,56.4,55.6,29.74,SSE,163,3.0,7.0,97,0.08,,---,1.33,VWS V14.00,2013-01-16 02:19:00,
2013-01-15 21:28:00,56.3,55.5,29.73,SSW,195,2.0,8.0,97,0.09,,---,1.34,VWS V14.00,2013-01-16 02:28:00,
2013-01-15 21:30:00,56.3,55.5,29.73,SSW,194,1.0,8.0,97,0.09,,---,1.34,VWS V14.00,2013-01-16 02:30:00,
2013-01-15 21:31:00,56.3,55.5,29.74,SW,218,3.0,4.0,97,0.07,,---,1.35,VWS V14.00,2013-01-16 02:31:00,
2013-01-15 21:34:00,56.2,55.4,29.74,SW,231,6.0,6.0,97,0.07,,---,1.35,VWS V14.00,2013-01-16 02:34:00,
2013-01-15 21:37:00,56.2,55.4,29.73,SSW,208,3.0,6.0,97,0.07,,---,1.35,VWS V14.00,2013-01-16 02:37:00,
2013-01-15 21:43:00,56.1,55.5,29.73,SSE,148,1.0,6.0,98,0.08,,---,1.36,VWS V14.00,2013-01-16 02:43:00,
2013-01-15 21:47:00,56.4,55.6,29.74,South,175,4.0,8.0,97,0.08,,---,1.33,VWS V14.00,2013-01-16 02:47:00,
2013-01-15 22:00:00,55.9,55.3,29.73,SSE,160,4.0,8.0,98,0.09,,---,1.37,VWS V14.00,2013-01-16 03:00:00,
2013-01-15 22:01:00,55.9,55.3,29.73,SW,221,4.0,5.0,98,0.06,,---,1.37,VWS V14.00,2013-01-16 03:01:00,
2013-01-15 22:05:00,56.1,55.5,29.73,SSW,211,2.0,6.0,98,0.08,,---,1.36,VWS V14.00,2013-01-16 03:05:00,
2013-01-15 22:07:00,55.9,55.3,29.73,SSW,212,2.0,5.0,98,0.06,,---,1.37,VWS V14.00,2013-01-16 03:07:00,
2013-01-15 22:10:00,55.9,55.3,29.73,SW,228,5.0,6.0,98,0.07,,---,1.38,VWS V14.00,2013-01-16 03:10:00,
2013-01-15 22:11:00,56.1,55.5,29.74,SW,215,0.0,6.0,98,0.08,,---,1.36,VWS V14.00,2013-01-16 03:11:00,
2013-01-15 22:13:00,55.9,55.3,29.73,SSW,204,4.0,6.0,98,0.07,,---,1.38,VWS V14.00,2013-01-16 03:13:00,
2013-01-15 22:16:00,55.8,55.2,29.73,SSE,166,2.0,6.0,98,0.07,,---,1.38,VWS V14.00,2013-01-16 03:16:00,
2013-01-15 22:17:00,56.1,55.5,29.74,SSW,211,4.0,6.0,98,0.08,,---,1.36,VWS V14.00,2013-01-16 03:17:00,
2013-01-15 22:19:00,55.8,55.2,29.73,SSE,167,5.0,6.0,98,0.07,,---,1.38,VWS V14.00,2013-01-16 03:19:00,
2013-01-15 22:23:00,56.0,55.5,29.73,SSE,167,4.0,8.0,98,0.08,,---,1.36,VWS V14.00,2013-01-16 03:23:00,
2013-01-15 22:28:00,55.9,55.3,29.73,South,173,4.0,7.0,98,0.08,,---,1.39,VWS V14.00,2013-01-16 03:28:00,
2013-01-15 22:29:00,55.9,55.3,29.73,SSW,211,3.0,5.0,98,0.06,,---,1.37,VWS V14.00,2013-01-16 03:29:00,
2013-01-15 22:30:00,55.9,55.3,29.73,South,181,4.0,9.0,98,0.08,,---,1.39,VWS V14.00,2013-01-16 03:30:00,
2013-01-15 22:31:00,55.9,55.3,29.73,SSE,165,2.0,7.0,98,0.05,,---,1.39,VWS V14.00,2013-01-16 03:31:00,
2013-01-15 22:34:00,55.9,55.3,29.73,South,183,5.0,8.0,98,0.06,,---,1.40,VWS V14.00,2013-01-16 03:34:00,
2013-01-15 22:37:00,55.9,55.3,29.73,SE,143,6.0,8.0,98,0.06,,---,1.40,VWS V14.00,2013-01-16 03:37:00,
2013-01-15 22:40:00,55.9,55.3,29.73,SSW,198,4.0,8.0,98,0.07,,---,1.41,VWS V14.00,2013-01-16 03:40:00,
2013-01-15 22:43:00,56.0,55.5,29.73,South,191,3.0,8.0,98,0.07,,---,1.41,VWS V14.00,2013-01-16 03:43:00,
2013-01-15 22:46:00,55.9,55.3,29.73,SE,134,8.0,9.0,98,0.07,,---,1.41,VWS V14.00,2013-01-16 03:46:00,
2013-01-15 22:47:00,55.9,55.3,29.73,South,188,3.0,7.0,98,0.07,,---,1.38,VWS V14.00,2013-01-16 03:47:00,
2013-01-15 23:00:00,55.5,54.7,29.73,SSE,158,3.0,10.0,97,0.07,,---,1.41,VWS V14.00,2013-01-16 04:00:00,
2013-01-15 23:01:00,55.5,54.7,29.73,South,191,5.0,6.0,97,0.04,,---,1.41,VWS V14.00,2013-01-16 04:01:00,
2013-01-15 23:04:00,55.4,54.6,29.73,South,186,7.0,9.0,97,0.04,,---,1.41,VWS V14.00,2013-01-16 04:04:00,
2013-01-15 23:07:00,55.4,54.6,29.72,South,183,3.0,9.0,97,0.04,,---,1.41,VWS V14.00,2013-01-16 04:07:00,
2013-01-15 23:10:00,55.3,54.5,29.73,SSE,163,6.0,9.0,97,0.04,,---,1.41,VWS V14.00,2013-01-16 04:10:00,
2013-01-15 23:13:00,55.3,54.5,29.72,WSW,238,2.0,10.0,97,0.04,,---,1.41,VWS V14.00,2013-01-16 04:13:00,
2013-01-15 23:14:00,55.9,55.1,29.73,SSW,197,6.0,10.0,97,0.07,,---,1.41,VWS V14.00,2013-01-16 04:14:00,
2013-01-15 23:16:00,55.3,54.5,29.72,South,176,4.0,10.0,97,0.05,,---,1.42,VWS V14.00,2013-01-16 04:16:00,
2013-01-15 23:20:00,55.6,54.8,29.73,South,188,4.0,10.0,97,0.07,,---,1.41,VWS V14.00,2013-01-16 04:20:00,
2013-01-15 23:30:00,55.2,54.4,29.72,SSW,205,2.0,10.0,97,0.06,,---,1.43,VWS V14.00,2013-01-16 04:30:00,
2013-01-15 23:34:00,55.2,54.7,29.72,SE,144,3.0,4.0,98,0.04,,---,1.43,VWS V14.00,2013-01-16 04:34:00,
2013-01-15 23:37:00,55.2,54.4,29.72,South,173,4.0,4.0,97,0.04,,---,1.43,VWS V14.00,2013-01-16 04:37:00,
2013-01-15 23:40:00,55.2,54.4,29.72,SSW,203,3.0,7.0,97,0.04,,---,1.43,VWS V14.00,2013-01-16 04:40:00,
2013-01-15 23:43:00,55.1,54.3,29.72,South,170,6.0,7.0,97,0.04,,---,1.43,VWS V14.00,2013-01-16 04:43:00,
2013-01-15 23:44:00,55.3,54.5,29.72,SE,144,2.0,10.0,97,0.06,,---,1.43,VWS V14.00,2013-01-16 04:44:00,
2013-01-15 23:46:00,55.1,54.3,29.72,SSW,200,2.0,7.0,97,0.04,,---,1.43,VWS V14.00,2013-01-16 04:46:00,
2013-01-15 23:50:00,55.3,54.5,29.72,South,172,4.0,10.0,97,0.06,,---,1.43,VWS V14.00,2013-01-16 04:50:00,
2013-01-15 23:53:00,55.0,54.2,29.72,SSE,166,2.0,7.0,97,0.04,,---,1.43,VWS V14.00,2013-01-16 04:53:00,
2013-01-15 23:56:00,55.2,54.7,29.72,South,169,4.0,4.0,98,0.04,,---,1.43,VWS V14.00,2013-01-16 04:56:00,
2013-01-15 23:59:00,54.8,54.0,29.72,SSW,203,4.0,9.0,97,0.04,,---,1.43,VWS V14.00,2013-01-16 04:59:00,